TimeMST,TemperatureF,Dew PointF,Humidity,Sea Level PressureIn,VisibilityMPH,Wind Direction,Wind SpeedMPH,Gust SpeedMPH,PrecipitationIn,Events,Conditions,WindDirDegrees,DateUTC
12:00 AM,-13.9,-18.6,80,30.21,-9999.0,South,1.2,-,N/A,,Unknown,170,2012-11-13 07:00:00
1:00 AM,-1.3,-5.1,84,30.17,-9999.0,SSE,6.9,-,N/A,,Unknown,150,2012-11-13 08:00:00
2:00 AM,-2.6,-6.5,83,30.16,-9999.0,SSE,5.8,-,N/A,,Unknown,160,2012-11-13 09:00:00
3:00 AM,-11.4,-16.8,77,30.14,-9999.0,Calm,Calm,-,N/A,,Unknown,0,2012-11-13 10:00:00
4:00 AM,-17.0,-22.5,76,30.13,-9999.0,WNW,1.2,-,N/A,,Unknown,290,2012-11-13 11:00:00
5:00 AM,-20,-26,61,30.11,,Calm,Calm,,,,,,2012-11-13 12:00:00
5:00 AM,-20.0,-25.8,75,30.11,-9999.0,Calm,Calm,-,N/A,,Unknown,0,2012-11-13 12:00:00
6:00 AM,-20.9,-26.7,75,30.08,-9999.0,North,16.1,-,N/A,,Unknown,0,2012-11-13 13:00:00
7:00 AM,-23.1,-29.6,72,30.07,-9999.0,WNW,3.5,-,N/A,,Unknown,290,2012-11-13 14:00:00
8:00 AM,-23.3,-29.4,73,30.06,-9999.0,West,3.5,-,N/A,,Unknown,280,2012-11-13 15:00:00
9:00 AM,-24.0,-30.3,72,30.04,-9999.0,NNW,1.2,-,N/A,,Unknown,330,2012-11-13 16:00:00
10:00 AM,-24.2,-29.9,74,30.03,-9999.0,West,3.5,-,N/A,,Unknown,280,2012-11-13 17:00:00
11:00 AM,-17,-23,63,30.02,,WNW,3.5,,,,,300,2012-11-13 18:00:00
11:00 AM,-17.1,-22.5,76,30.02,-9999.0,WNW,3.5,-,N/A,,Unknown,300,2012-11-13 18:00:00
12:00 PM,-8.5,-13.0,81,29.99,-9999.0,WNW,3.5,-,N/A,,Unknown,300,2012-11-13 19:00:00
1:00 PM,-3.3,-8.1,80,29.98,-9999.0,WNW,8.1,-,N/A,,Unknown,290,2012-11-13 20:00:00
2:00 PM,-3.1,-8.1,79,29.98,-9999.0,WNW,8.1,-,N/A,,Unknown,290,2012-11-13 21:00:00
3:00 PM,-3.8,-8.7,80,29.99,-9999.0,West,5.8,-,N/A,,Unknown,280,2012-11-13 22:00:00
4:00 PM,-4.9,-9.6,80,29.99,-9999.0,WNW,5.8,-,N/A,,Unknown,300,2012-11-13 23:00:00
5:00 PM,-5,-10,70,29.99,,WNW,2.3,,,,,290,2012-11-14 00:00:00
5:00 PM,-5.4,-9.8,82,29.99,-9999.0,WNW,2.3,-,N/A,,Unknown,290,2012-11-14 00:00:00
6:00 PM,-6.5,-10.7,82,29.97,-9999.0,WNW,5.8,-,N/A,,Unknown,300,2012-11-14 01:00:00
7:00 PM,-0.4,-4.2,84,29.97,-9999.0,WNW,11.5,-,N/A,,Unknown,300,2012-11-14 02:00:00
8:00 PM,2.5,-1.7,83,29.97,-9999.0,WNW,11.5,-,N/A,,Unknown,290,2012-11-14 03:00:00
9:00 PM,3.6,-0.9,82,29.97,-9999.0,WNW,15.0,-,N/A,,Unknown,290,2012-11-14 04:00:00
10:00 PM,2.5,-2.4,80,29.97,-9999.0,West,12.7,-,N/A,,Unknown,280,2012-11-14 05:00:00
11:00 PM,-0,-5,69,29.96,,West,8.1,,,,,270,2012-11-14 06:00:00
11:00 PM,-0.2,-5.1,80,29.96,-9999.0,West,8.1,-,N/A,,Unknown,270,2012-11-14 06:00:00